Time,TemperatureF,DewpointF,PressureIn,WindDirection,WindDirectionDegrees,WindSpeedMPH,WindSpeedGustMPH,Humidity,HourlyPrecipIn,Conditions,Clouds,dailyrainin,SolarRadiationWatts/m^2,SoftwareType,DateUTC
2013-03-23 00:00:00,70.4,68.9,29.67,ESE,112,4.0,10.0,95,0.00,,,0.00,0.00,VWS V14.00,2013-03-23 05:00:00,
2013-03-23 00:15:00,70.5,69.0,29.67,East,90,3.0,9.0,95,0.00,,,0.00,0.00,VWS V14.00,2013-03-23 05:15:00,
2013-03-23 00:30:00,70.5,69.0,29.67,East,90,2.0,7.0,95,0.00,,,0.00,0.00,VWS V14.00,2013-03-23 05:30:00,
2013-03-23 00:45:00,70.6,69.1,29.67,ESE,112,2.0,6.0,95,0.00,,,0.00,0.00,VWS V14.00,2013-03-23 05:45:00,
2013-03-23 01:00:00,70.6,69.1,29.66,East,90,2.0,6.0,95,0.00,,,0.00,0.00,VWS V14.00,2013-03-23 06:00:00,
2013-03-23 01:15:00,70.6,69.1,29.66,East,90,2.0,7.0,95,0.00,,,0.00,0.00,VWS V14.00,2013-03-23 06:15:00,
2013-03-23 01:30:00,70.6,69.1,29.65,East,90,2.0,7.0,95,0.00,,,0.00,0.00,VWS V14.00,2013-03-23 06:30:00,
2013-03-23 01:45:00,70.6,69.1,29.64,ESE,112,2.0,7.0,95,0.00,,,0.00,0.00,VWS V14.00,2013-03-23 06:45:00,
2013-03-23 02:00:00,70.7,69.2,29.63,ESE,112,3.0,10.0,95,0.00,,,0.00,0.00,VWS V14.00,2013-03-23 07:00:00,
2013-03-23 02:15:00,70.7,69.2,29.63,East,90,3.0,8.0,95,0.00,,,0.00,0.00,VWS V14.00,2013-03-23 07:15:00,
2013-03-23 02:30:00,70.6,69.1,29.62,ESE,112,4.0,11.0,95,0.00,,,0.00,0.00,VWS V14.00,2013-03-23 07:30:00,
2013-03-23 02:45:00,70.6,69.1,29.62,ESE,112,4.0,9.0,95,0.00,,,0.00,0.00,VWS V14.00,2013-03-23 07:45:00,
2013-03-23 03:00:00,70.6,69.1,29.61,East,90,4.0,10.0,95,0.00,,,0.00,0.00,VWS V14.00,2013-03-23 08:00:00,
2013-03-23 03:15:00,70.5,69.3,29.61,ESE,112,4.0,7.0,96,0.00,,,0.00,0.00,VWS V14.00,2013-03-23 08:15:00,
2013-03-23 03:30:00,70.5,69.3,29.60,ESE,112,3.0,8.0,96,0.00,,,0.00,0.00,VWS V14.00,2013-03-23 08:30:00,
2013-03-23 03:45:00,70.4,69.2,29.59,East,90,3.0,9.0,96,0.00,,,0.00,0.00,VWS V14.00,2013-03-23 08:45:00,
2013-03-23 04:00:00,70.5,69.3,29.60,ESE,112,3.0,7.0,96,0.00,,,0.00,0.00,VWS V14.00,2013-03-23 09:00:00,
2013-03-23 04:15:00,70.6,69.4,29.60,ESE,112,2.0,6.0,96,0.00,,,0.00,0.00,VWS V14.00,2013-03-23 09:15:00,
2013-03-23 04:30:00,70.6,69.4,29.60,East,90,2.0,5.0,96,0.00,,,0.00,0.00,VWS V14.00,2013-03-23 09:30:00,
2013-03-23 04:45:00,70.4,69.2,29.60,East,90,2.0,6.0,96,0.00,,,0.00,0.00,VWS V14.00,2013-03-23 09:45:00,
2013-03-23 05:00:00,70.4,69.2,29.60,ESE,112,2.0,6.0,96,0.00,,,0.00,0.00,VWS V14.00,2013-03-23 10:00:00,
2013-03-23 05:15:00,70.3,69.1,29.61,ESE,112,1.0,5.0,96,0.00,,,0.00,0.00,VWS V14.00,2013-03-23 10:15:00,
2013-03-23 05:30:00,70.2,69.0,29.61,East,90,2.0,6.0,96,0.00,,,0.00,0.00,VWS V14.00,2013-03-23 10:30:00,
2013-03-23 05:45:00,70.3,69.1,29.61,East,90,2.0,6.0,96,0.00,,,0.00,0.00,VWS V14.00,2013-03-23 10:45:00,
2013-03-23 06:00:00,70.2,69.0,29.62,East,90,1.0,5.0,96,0.00,,,0.00,0.00,VWS V14.00,2013-03-23 11:00:00,
2013-03-23 06:15:00,70.2,69.0,29.62,East,90,0.0,3.0,96,0.00,,,0.00,0.00,VWS V14.00,2013-03-23 11:15:00,
2013-03-23 06:30:00,70.2,69.0,29.62,East,90,0.0,3.0,96,0.00,,,0.00,0.00,VWS V14.00,2013-03-23 11:30:00,
2013-03-23 06:45:00,70.1,68.9,29.62,East,90,1.0,4.0,96,0.00,,,0.00,0.00,VWS V14.00,2013-03-23 11:45:00,
2013-03-23 07:00:00,70.1,68.9,29.63,East,90,1.0,3.0,96,0.00,,,0.00,0.00,VWS V14.00,2013-03-23 12:00:00,
2013-03-23 07:15:00,70.0,68.8,29.63,East,90,1.0,3.0,96,0.00,,,0.00,0.00,VWS V14.00,2013-03-23 12:15:00,
2013-03-23 07:30:00,70.0,68.8,29.63,NE,45,0.0,4.0,96,0.00,,,0.00,0.00,VWS V14.00,2013-03-23 12:30:00,
2013-03-23 07:45:00,70.0,68.8,29.63,East,90,1.0,4.0,96,0.00,,,0.00,0.00,VWS V14.00,2013-03-23 12:45:00,
2013-03-23 08:00:00,70.1,68.9,29.63,East,90,1.0,5.0,96,0.00,,,0.00,8.00,VWS V14.00,2013-03-23 13:00:00,
2013-03-23 08:15:00,70.1,68.9,29.63,East,90,1.0,5.0,96,0.00,,,0.00,14.00,VWS V14.00,2013-03-23 13:15:00,
2013-03-23 08:30:00,70.2,69.0,29.63,NE,45,1.0,5.0,96,0.00,,,0.00,17.00,VWS V14.00,2013-03-23 13:30:00,
2013-03-23 08:45:00,70.3,69.1,29.63,East,90,1.0,3.0,96,0.00,,,0.00,29.00,VWS V14.00,2013-03-23 13:45:00,
2013-03-23 09:00:00,69.4,67.9,29.64,NNE,22,1.0,9.0,95,0.00,,,0.00,35.00,VWS V14.00,2013-03-23 14:00:00,
2013-03-23 09:15:00,62.8,61.3,29.65,North,0,3.0,13.0,95,0.00,,,0.00,20.00,VWS V14.00,2013-03-23 14:15:00,
2013-03-23 09:39:00,61.9,60.5,29.64,North,0,4.0,14.0,95,0.00,,,0.00,35.00,VWS V14.00,2013-03-23 14:39:00,
2013-03-23 09:45:00,61.7,60.3,29.64,North,5,2.0,8.0,95,0.00,,,0.00,51.00,VWS V14.00,2013-03-23 14:45:00,
2013-03-23 10:00:00,61.6,60.2,29.64,NNE,32,2.0,10.0,95,0.00,,,0.00,74.00,VWS V14.00,2013-03-23 15:00:00,
2013-03-23 10:15:00,62.5,61.0,29.64,North,0,4.0,8.0,95,0.00,,,0.00,115.00,VWS V14.00,2013-03-23 15:15:00,
2013-03-23 10:30:00,62.9,61.5,29.65,North,0,4.0,10.0,95,0.00,,,0.00,151.00,VWS V14.00,2013-03-23 15:30:00,
2013-03-23 10:45:00,63.6,62.2,29.64,North,0,4.0,9.0,95,0.00,,,0.00,182.00,VWS V14.00,2013-03-23 15:45:00,
2013-03-23 11:00:00,64.3,62.8,29.64,North,0,4.0,9.0,95,0.00,,,0.00,237.00,VWS V14.00,2013-03-23 16:00:00,
2013-03-23 11:30:00,67.2,65.1,29.65,North,0,3.0,7.0,93,0.00,,,0.00,370.00,VWS V14.00,2013-03-23 16:30:00,
2013-03-23 11:45:00,68.0,65.0,29.65,North,0,3.0,7.0,90,0.00,,,0.00,324.00,VWS V14.00,2013-03-23 16:45:00,
2013-03-23 12:30:00,66.9,63.6,29.66,NW,315,2.0,7.0,89,0.00,,,0.00,177.00,VWS V14.00,2013-03-23 17:30:00,
2013-03-23 12:51:00,66.3,63.0,29.65,WNW,292,3.0,9.0,89,0.00,,,0.00,245.00,VWS V14.00,2013-03-23 17:51:00,
2013-03-23 13:00:00,66.0,62.7,29.65,NW,315,2.0,8.0,89,0.00,,,0.00,190.00,VWS V14.00,2013-03-23 18:00:00,
2013-03-23 13:15:00,65.7,62.7,29.65,NW,315,2.0,9.0,90,0.00,,,0.00,168.00,VWS V14.00,2013-03-23 18:15:00,
2013-03-23 13:30:00,65.2,62.2,29.65,WNW,292,2.0,7.0,90,0.00,,,0.00,137.00,VWS V14.00,2013-03-23 18:30:00,
2013-03-23 13:45:00,64.7,61.7,29.64,NW,315,2.0,9.0,90,0.00,,,0.00,144.00,VWS V14.00,2013-03-23 18:45:00,
2013-03-23 14:00:00,64.9,62.2,29.62,NNW,338,1.0,10.0,91,0.00,,,0.00,173.00,VWS V14.00,2013-03-23 19:00:00,
2013-03-23 14:15:00,65.3,62.3,29.61,North,0,3.0,8.0,90,0.00,,,0.00,232.00,VWS V14.00,2013-03-23 19:15:00,
2013-03-23 14:30:00,66.3,63.3,29.61,North,0,1.0,7.0,90,0.00,,,0.00,290.00,VWS V14.00,2013-03-23 19:30:00,
2013-03-23 14:45:00,67.6,63.9,29.61,North,0,2.0,7.0,88,0.00,,,0.00,381.00,VWS V14.00,2013-03-23 19:45:00,
2013-03-23 15:00:00,69.5,65.1,29.59,North,0,2.0,6.0,86,0.00,,,0.00,547.00,VWS V14.00,2013-03-23 20:00:00,
2013-03-23 15:15:00,71.1,65.0,29.58,North,0,3.0,7.0,81,0.00,,,0.00,594.00,VWS V14.00,2013-03-23 20:15:00,
2013-03-23 15:30:00,73.3,67.1,29.58,NW,315,2.0,6.0,81,0.00,,,0.00,723.00,VWS V14.00,2013-03-23 20:30:00,
2013-03-23 15:45:00,74.4,66.7,29.57,WNW,292,1.0,5.0,77,0.00,,,0.00,696.00,VWS V14.00,2013-03-23 20:45:00,
2013-03-23 16:00:00,74.8,66.7,29.56,WNW,292,2.0,5.0,76,0.00,,,0.00,655.00,VWS V14.00,2013-03-23 21:00:00,
2013-03-23 16:15:00,75.3,67.2,29.55,WNW,292,2.0,5.0,76,0.00,,,0.00,622.00,VWS V14.00,2013-03-23 21:15:00,
2013-03-23 16:30:00,76.2,67.7,29.55,WNW,292,2.0,5.0,75,0.00,,,0.00,579.00,VWS V14.00,2013-03-23 21:30:00,
2013-03-23 16:45:00,76.7,68.2,29.54,WNW,292,2.0,5.0,75,0.00,,,0.00,537.00,VWS V14.00,2013-03-23 21:45:00,
2013-03-23 17:00:00,77.6,68.7,29.54,WNW,292,1.0,5.0,74,0.00,,,0.00,490.00,VWS V14.00,2013-03-23 22:00:00,
2013-03-23 17:15:00,78.0,69.1,29.54,WNW,292,1.0,6.0,74,0.00,,,0.00,433.00,VWS V14.00,2013-03-23 22:15:00,
2013-03-23 17:30:00,78.5,69.1,29.53,WNW,292,0.0,4.0,73,0.00,,,0.00,386.00,VWS V14.00,2013-03-23 22:30:00,
2013-03-23 17:45:00,78.7,68.9,29.54,WNW,292,1.0,3.0,72,0.00,,,0.00,331.00,VWS V14.00,2013-03-23 22:45:00,
2013-03-23 18:00:00,78.6,68.8,29.54,NW,315,1.0,4.0,72,0.00,,,0.00,281.00,VWS V14.00,2013-03-23 23:00:00,
2013-03-23 18:15:00,78.3,68.5,29.54,NW,315,1.0,5.0,72,0.00,,,0.00,229.00,VWS V14.00,2013-03-23 23:15:00,
2013-03-23 18:30:00,77.9,68.6,29.54,NW,315,1.0,3.0,73,0.00,,,0.00,175.00,VWS V14.00,2013-03-23 23:30:00,
2013-03-23 18:45:00,77.0,68.5,29.54,WNW,292,1.0,3.0,75,0.00,,,0.00,107.00,VWS V14.00,2013-03-23 23:45:00,
2013-03-23 19:00:00,76.3,68.6,29.55,WNW,292,0.0,3.0,77,0.00,,,0.00,57.00,VWS V14.00,2013-03-24 00:00:00,
2013-03-23 19:15:00,75.6,68.3,29.55,WNW,292,0.0,1.0,78,0.00,,,0.00,38.00,VWS V14.00,2013-03-24 00:15:00,
2013-03-23 19:30:00,74.9,67.9,29.55,WNW,292,0.0,1.0,79,0.00,,,0.00,20.00,VWS V14.00,2013-03-24 00:30:00,
2013-03-23 19:45:00,74.2,68.0,29.56,WNW,292,0.0,1.0,81,0.00,,,0.00,4.00,VWS V14.00,2013-03-24 00:45:00,
2013-03-23 20:00:00,73.5,67.3,29.58,NW,315,0.0,3.0,81,0.00,,,0.00,0.00,VWS V14.00,2013-03-24 01:00:00,
2013-03-23 20:15:00,72.7,66.9,29.58,NW,315,0.0,0.0,82,0.00,,,0.00,0.00,VWS V14.00,2013-03-24 01:15:00,
2013-03-23 20:30:00,71.5,66.4,29.59,NW,315,0.0,0.0,84,0.00,,,0.00,0.00,VWS V14.00,2013-03-24 01:30:00,
2013-03-23 20:45:00,70.9,66.2,29.58,NW,315,0.0,2.0,85,0.00,,,0.00,0.00,VWS V14.00,2013-03-24 01:45:00,
2013-03-23 21:00:00,70.6,66.6,29.59,ESE,112,0.0,3.0,87,0.00,,,0.00,0.00,VWS V14.00,2013-03-24 02:00:00,
2013-03-23 21:15:00,69.9,66.2,29.60,ESE,112,0.0,1.0,88,0.00,,,0.00,0.00,VWS V14.00,2013-03-24 02:15:00,
2013-03-23 21:30:00,69.5,66.1,29.60,ESE,112,0.0,2.0,89,0.00,,,0.00,0.00,VWS V14.00,2013-03-24 02:30:00,
2013-03-23 21:45:00,69.1,66.1,29.60,East,90,0.0,3.0,90,0.00,,,0.00,0.00,VWS V14.00,2013-03-24 02:45:00,
2013-03-23 22:00:00,68.7,66.0,29.60,East,90,0.0,2.0,91,0.00,,,0.00,0.00,VWS V14.00,2013-03-24 03:00:00,
2013-03-23 22:15:00,68.3,65.6,29.60,East,90,0.0,3.0,91,0.00,,,0.00,0.00,VWS V14.00,2013-03-24 03:15:00,
2013-03-23 22:30:00,68.2,65.5,29.60,East,90,0.0,2.0,91,0.00,,,0.00,0.00,VWS V14.00,2013-03-24 03:30:00,
2013-03-23 22:45:00,68.1,65.4,29.60,East,90,0.0,2.0,91,0.00,,,0.00,0.00,VWS V14.00,2013-03-24 03:45:00,
2013-03-23 23:00:00,67.8,65.4,29.60,East,90,0.0,3.0,92,0.00,,,0.00,0.00,VWS V14.00,2013-03-24 04:00:00,
2013-03-23 23:15:00,67.5,65.1,29.60,East,90,0.0,2.0,92,0.00,,,0.00,0.00,VWS V14.00,2013-03-24 04:15:00,
2013-03-23 23:30:00,67.6,65.2,29.60,East,90,0.0,2.0,92,0.00,,,0.00,0.00,VWS V14.00,2013-03-24 04:30:00,
2013-03-23 23:45:00,67.1,65.0,29.60,East,90,0.0,3.0,93,0.00,,,0.00,0.00,VWS V14.00,2013-03-24 04:45:00,